Year,Month,Day,Hour,Minute,Value (Times are PST for temperature in C)
2021,06,09,00,00,12.20
2021,06,09,00,01,12.20
2021,06,09,00,02,12.20
2021,06,09,00,03,12.20
2021,06,09,00,04,12.20
2021,06,09,00,05,12.20
2021,06,09,00,06,12.10
2021,06,09,00,07,12.10
2021,06,09,00,08,12.10
2021,06,09,00,09,12.10
2021,06,09,00,10,12.10
2021,06,09,00,11,12.10
2021,06,09,00,12,12.10
2021,06,09,00,13,12.10
2021,06,09,00,14,12.10
2021,06,09,00,15,12.10
2021,06,09,00,16,12.20
2021,06,09,00,17,12.20
2021,06,09,00,18,12.20
2021,06,09,00,19,12.20
2021,06,09,00,20,12.20
2021,06,09,00,21,12.20
2021,06,09,00,22,12.20
2021,06,09,00,23,12.20
2021,06,09,00,24,12.20
2021,06,09,00,25,12.20
2021,06,09,00,26,12.20
2021,06,09,00,27,12.20
2021,06,09,00,28,12.20
2021,06,09,00,29,12.20
2021,06,09,00,30,12.20
2021,06,09,00,31,12.20
2021,06,09,00,32,12.30
2021,06,09,00,33,12.30
2021,06,09,00,34,12.30
2021,06,09,00,35,12.30
2021,06,09,00,36,12.30
2021,06,09,00,37,12.30
2021,06,09,00,38,12.30
2021,06,09,00,39,12.30
2021,06,09,00,40,12.30
2021,06,09,00,41,12.30
2021,06,09,00,42,12.30
2021,06,09,00,43,12.30
2021,06,09,00,44,12.30
2021,06,09,00,45,12.30
2021,06,09,00,46,12.30
2021,06,09,00,47,12.30
2021,06,09,00,48,12.20
2021,06,09,00,49,12.30
2021,06,09,00,50,12.30
2021,06,09,00,51,12.30
2021,06,09,00,52,12.30
2021,06,09,00,53,12.20
2021,06,09,00,54,12.20
2021,06,09,00,55,12.20
2021,06,09,00,56,12.20
2021,06,09,00,57,12.20
2021,06,09,00,58,12.20
2021,06,09,00,59,12.20
2021,06,09,01,00,12.20
2021,06,09,01,01,12.20
2021,06,09,01,02,12.20
2021,06,09,01,03,12.30
2021,06,09,01,04,12.30
2021,06,09,01,05,12.30
2021,06,09,01,06,12.30
2021,06,09,01,07,12.30
2021,06,09,01,08,12.30
2021,06,09,01,09,12.30
2021,06,09,01,10,12.30
2021,06,09,01,11,12.30
2021,06,09,01,12,12.30
2021,06,09,01,13,12.30
2021,06,09,01,14,12.30
2021,06,09,01,15,12.30
2021,06,09,01,16,12.30
2021,06,09,01,17,12.30
2021,06,09,01,18,12.30
2021,06,09,01,19,12.30
2021,06,09,01,20,12.30
2021,06,09,01,21,12.30
2021,06,09,01,22,12.30
2021,06,09,01,23,12.30
2021,06,09,01,24,12.30
2021,06,09,01,25,12.30
2021,06,09,01,26,12.30
2021,06,09,01,27,12.30
2021,06,09,01,28,12.30
2021,06,09,01,29,12.30
2021,06,09,01,30,12.30
2021,06,09,01,31,12.30
2021,06,09,01,32,12.30
2021,06,09,01,33,12.30
2021,06,09,01,34,12.20
2021,06,09,01,35,12.20
2021,06,09,01,36,12.20
2021,06,09,01,37,12.20
2021,06,09,01,38,12.20
2021,06,09,01,39,12.20
2021,06,09,01,40,12.10
2021,06,09,01,41,12.10
2021,06,09,01,42,12.10
2021,06,09,01,43,12.10
2021,06,09,01,44,12.10
2021,06,09,01,45,12.10
2021,06,09,01,46,12.10
2021,06,09,01,47,12.10
2021,06,09,01,48,12.10
2021,06,09,01,49,12.00
2021,06,09,01,50,12.00
2021,06,09,01,51,12.00
2021,06,09,01,52,11.90
2021,06,09,01,53,11.90
2021,06,09,01,54,11.90
2021,06,09,01,55,11.90
2021,06,09,01,56,11.90
2021,06,09,01,57,11.90
2021,06,09,01,58,11.90
2021,06,09,01,59,11.90
2021,06,09,02,00,11.90
2021,06,09,02,01,11.80
2021,06,09,02,02,11.80
2021,06,09,02,03,11.80
2021,06,09,02,04,11.80
2021,06,09,02,05,11.80
2021,06,09,02,06,11.80
2021,06,09,02,07,11.80
2021,06,09,02,08,11.70
2021,06,09,02,09,11.70
2021,06,09,02,10,11.70
2021,06,09,02,11,11.70
2021,06,09,02,12,11.70
2021,06,09,02,13,11.70
2021,06,09,02,14,11.60
2021,06,09,02,15,11.60
2021,06,09,02,16,11.60
2021,06,09,02,17,11.60
2021,06,09,02,18,11.60
2021,06,09,02,19,11.60
2021,06,09,02,20,11.50
2021,06,09,02,21,11.50
2021,06,09,02,22,11.50
2021,06,09,02,23,11.50
2021,06,09,02,24,11.50
2021,06,09,02,25,11.50
2021,06,09,02,26,11.50
2021,06,09,02,27,11.50
2021,06,09,02,28,11.50
2021,06,09,02,29,11.50
2021,06,09,02,30,11.50
2021,06,09,02,31,11.50
2021,06,09,02,32,11.50
2021,06,09,02,33,11.50
2021,06,09,02,34,11.50
2021,06,09,02,35,11.50
2021,06,09,02,36,11.40
2021,06,09,02,37,11.40
2021,06,09,02,38,11.40
2021,06,09,02,39,11.40
2021,06,09,02,40,11.40
2021,06,09,02,41,11.40
2021,06,09,02,42,11.40
2021,06,09,02,43,11.40
2021,06,09,02,44,11.40
2021,06,09,02,45,11.40
2021,06,09,02,46,11.40
2021,06,09,02,47,11.40
2021,06,09,02,48,11.40
2021,06,09,02,49,11.40
2021,06,09,02,50,11.40
2021,06,09,02,51,11.50
2021,06,09,02,52,11.50
2021,06,09,02,53,11.50
2021,06,09,02,54,11.50
2021,06,09,02,55,11.50
2021,06,09,02,56,11.50
2021,06,09,02,57,11.50
2021,06,09,02,58,11.50
2021,06,09,02,59,11.50
2021,06,09,03,00,11.50
2021,06,09,03,01,11.50
2021,06,09,03,02,11.50
2021,06,09,03,03,11.50
2021,06,09,03,04,11.50
2021,06,09,03,05,11.50
2021,06,09,03,06,11.50
2021,06,09,03,07,11.50
2021,06,09,03,08,11.50
2021,06,09,03,09,11.50
2021,06,09,03,10,11.50
2021,06,09,03,11,11.50
2021,06,09,03,12,11.50
2021,06,09,03,13,11.50
2021,06,09,03,14,11.50
2021,06,09,03,15,11.50
2021,06,09,03,16,11.50
2021,06,09,03,17,11.50
2021,06,09,03,18,11.50
2021,06,09,03,19,11.50
2021,06,09,03,20,11.50
2021,06,09,03,21,11.50
2021,06,09,03,22,11.50
2021,06,09,03,23,11.50
2021,06,09,03,24,11.50
2021,06,09,03,25,11.50
2021,06,09,03,26,11.50
2021,06,09,03,27,11.50
2021,06,09,03,28,11.50
2021,06,09,03,29,11.50
2021,06,09,03,30,11.50
2021,06,09,03,31,11.50
2021,06,09,03,32,11.50
2021,06,09,03,33,11.50
2021,06,09,03,34,11.40
2021,06,09,03,35,11.40
2021,06,09,03,36,11.40
2021,06,09,03,37,11.40
2021,06,09,03,38,11.40
2021,06,09,03,39,11.40
2021,06,09,03,40,11.40
2021,06,09,03,41,11.40
2021,06,09,03,42,11.40
2021,06,09,03,43,11.40
2021,06,09,03,44,11.40
2021,06,09,03,45,11.40
2021,06,09,03,46,11.40
2021,06,09,03,47,11.40
2021,06,09,03,48,11.40
2021,06,09,03,49,11.40
2021,06,09,03,50,11.30
2021,06,09,03,51,11.30
2021,06,09,03,52,11.30
2021,06,09,03,53,11.30
2021,06,09,03,54,11.30
2021,06,09,03,55,11.30
2021,06,09,03,56,11.30
2021,06,09,03,57,11.30
2021,06,09,03,58,11.30
2021,06,09,03,59,11.30
2021,06,09,04,00,11.20
2021,06,09,04,01,11.20
2021,06,09,04,02,11.20
2021,06,09,04,03,11.20
2021,06,09,04,04,11.20
2021,06,09,04,05,11.20
2021,06,09,04,06,11.20
2021,06,09,04,07,11.20
2021,06,09,04,08,11.20
2021,06,09,04,09,11.20
2021,06,09,04,10,11.10
2021,06,09,04,11,11.10
2021,06,09,04,12,11.10
2021,06,09,04,13,11.10
2021,06,09,04,14,11.10
2021,06,09,04,15,11.10
2021,06,09,04,16,11.10
2021,06,09,04,17,11.10
2021,06,09,04,18,11.10
2021,06,09,04,19,11.10
2021,06,09,04,20,11.00
2021,06,09,04,21,11.10
2021,06,09,04,22,11.00
2021,06,09,04,23,11.00
2021,06,09,04,24,11.00
2021,06,09,04,25,11.00
2021,06,09,04,26,11.00
2021,06,09,04,27,11.00
2021,06,09,04,28,11.00
2021,06,09,04,29,11.00
2021,06,09,04,30,11.00
2021,06,09,04,31,11.00
2021,06,09,04,32,11.00
2021,06,09,04,33,10.90
2021,06,09,04,34,10.90
2021,06,09,04,35,10.90
2021,06,09,04,36,10.90
2021,06,09,04,37,10.90
2021,06,09,04,38,10.90
2021,06,09,04,39,10.80
2021,06,09,04,40,10.80
2021,06,09,04,41,10.70
2021,06,09,04,42,10.70
2021,06,09,04,43,10.70
2021,06,09,04,44,10.70
2021,06,09,04,45,10.60
2021,06,09,04,46,10.60
2021,06,09,04,47,10.60
2021,06,09,04,48,10.60
2021,06,09,04,49,10.60
2021,06,09,04,50,10.60
2021,06,09,04,51,10.60
2021,06,09,04,52,10.60
2021,06,09,04,53,10.50
2021,06,09,04,54,10.50
2021,06,09,04,55,10.40
2021,06,09,04,56,10.30
2021,06,09,04,57,10.20
2021,06,09,04,58,10.00
2021,06,09,04,59,9.90
2021,06,09,05,00,9.90
2021,06,09,05,01,9.80
2021,06,09,05,02,9.80
2021,06,09,05,03,9.70
2021,06,09,05,04,9.70
2021,06,09,05,05,9.70
2021,06,09,05,06,9.70
2021,06,09,05,07,9.60
2021,06,09,05,08,9.60
2021,06,09,05,09,9.60
2021,06,09,05,10,9.60
2021,06,09,05,11,9.60
2021,06,09,05,12,9.60
2021,06,09,05,13,9.50
2021,06,09,05,14,9.60
2021,06,09,05,15,9.60
2021,06,09,05,16,9.60
2021,06,09,05,17,9.60
2021,06,09,05,18,9.60
2021,06,09,05,19,9.60
2021,06,09,05,20,9.60
2021,06,09,05,21,9.60
2021,06,09,05,22,9.70
2021,06,09,05,23,9.70
2021,06,09,05,24,9.70
2021,06,09,05,25,9.70
2021,06,09,05,26,9.70
2021,06,09,05,27,9.70
2021,06,09,05,28,9.70
2021,06,09,05,29,9.70
2021,06,09,05,30,9.60
2021,06,09,05,31,9.50
2021,06,09,05,32,9.40
2021,06,09,05,33,9.40
2021,06,09,05,34,9.30
2021,06,09,05,35,9.20
2021,06,09,05,36,9.10
2021,06,09,05,37,9.00
2021,06,09,05,38,8.90
2021,06,09,05,39,8.80
2021,06,09,05,40,8.70
2021,06,09,05,41,8.70
2021,06,09,05,42,8.60
2021,06,09,05,43,8.60
2021,06,09,05,44,8.60
2021,06,09,05,45,8.50
2021,06,09,05,46,8.50
2021,06,09,05,47,8.40
2021,06,09,05,48,8.40
2021,06,09,05,49,8.40
2021,06,09,05,50,8.40
2021,06,09,05,51,8.30
2021,06,09,05,52,8.30
2021,06,09,05,53,8.30
2021,06,09,05,54,8.30
2021,06,09,05,55,8.30
2021,06,09,05,56,8.30
2021,06,09,05,57,8.30
2021,06,09,05,58,8.20
2021,06,09,05,59,8.20
2021,06,09,06,00,8.20
2021,06,09,06,01,8.20
2021,06,09,06,02,8.20
2021,06,09,06,03,8.20
2021,06,09,06,04,8.20
2021,06,09,06,05,8.20
2021,06,09,06,06,8.20
2021,06,09,06,07,8.20
2021,06,09,06,08,8.20
2021,06,09,06,09,8.30
2021,06,09,06,10,8.30
2021,06,09,06,11,8.30
2021,06,09,06,12,8.30
2021,06,09,06,13,8.40
2021,06,09,06,14,8.40
2021,06,09,06,15,8.40
2021,06,09,06,16,8.40
2021,06,09,06,17,8.40
2021,06,09,06,18,8.40
2021,06,09,06,19,8.40
2021,06,09,06,20,8.40
2021,06,09,06,21,8.40
2021,06,09,06,22,8.40
2021,06,09,06,23,8.40
2021,06,09,06,24,8.40
2021,06,09,06,25,8.40
2021,06,09,06,26,8.40
2021,06,09,06,27,8.50
2021,06,09,06,28,8.50
2021,06,09,06,29,8.50
2021,06,09,06,30,8.50
2021,06,09,06,31,8.60
2021,06,09,06,32,8.60
2021,06,09,06,33,8.70
2021,06,09,06,34,8.70
2021,06,09,06,35,8.80
2021,06,09,06,36,8.90
2021,06,09,06,37,8.90
2021,06,09,06,38,9.00
2021,06,09,06,39,9.00
2021,06,09,06,40,9.00
2021,06,09,06,41,9.00
2021,06,09,06,42,9.00
2021,06,09,06,43,9.00
2021,06,09,06,44,9.10
2021,06,09,06,45,9.10
2021,06,09,06,46,9.10
2021,06,09,06,47,9.20
2021,06,09,06,48,9.20
2021,06,09,06,49,9.30
2021,06,09,06,50,9.40
2021,06,09,06,51,9.60
2021,06,09,06,52,9.80
2021,06,09,06,53,10.00
2021,06,09,06,54,10.20
2021,06,09,06,55,10.40
2021,06,09,06,56,10.60
2021,06,09,06,57,10.70
2021,06,09,06,58,10.80
2021,06,09,06,59,10.80
2021,06,09,07,00,10.90
2021,06,09,07,01,11.00
2021,06,09,07,02,11.10
2021,06,09,07,03,11.10
2021,06,09,07,04,11.20
2021,06,09,07,05,11.20
2021,06,09,07,06,11.20
2021,06,09,07,07,11.20
2021,06,09,07,08,11.20
2021,06,09,07,09,11.20
2021,06,09,07,10,11.20
2021,06,09,07,11,11.20
2021,06,09,07,12,11.30
2021,06,09,07,13,11.30
2021,06,09,07,14,11.30
2021,06,09,07,15,11.40
2021,06,09,07,16,11.50
2021,06,09,07,17,11.50
2021,06,09,07,18,11.60
2021,06,09,07,19,11.70
2021,06,09,07,20,11.70
2021,06,09,07,21,11.80
2021,06,09,07,22,11.90
2021,06,09,07,23,11.90
2021,06,09,07,24,12.00
2021,06,09,07,25,12.00
2021,06,09,07,26,12.10
2021,06,09,07,27,12.10
2021,06,09,07,28,12.20
2021,06,09,07,29,12.20
2021,06,09,07,30,12.20
2021,06,09,07,31,12.30
2021,06,09,07,32,12.30
2021,06,09,07,33,12.30
2021,06,09,07,34,12.30
2021,06,09,07,35,12.40
2021,06,09,07,36,12.40
2021,06,09,07,37,12.40
2021,06,09,07,38,12.40
2021,06,09,07,39,12.40
2021,06,09,07,40,12.50
2021,06,09,07,41,12.50
2021,06,09,07,42,12.50
2021,06,09,07,43,12.60
2021,06,09,07,44,12.60
2021,06,09,07,45,12.60
2021,06,09,07,46,12.70
2021,06,09,07,47,12.70
2021,06,09,07,48,12.70
2021,06,09,07,49,12.70
2021,06,09,07,50,12.70
2021,06,09,07,51,12.70
2021,06,09,07,52,12.70
2021,06,09,07,53,12.70
2021,06,09,07,54,12.70
2021,06,09,07,55,12.70
2021,06,09,07,56,12.70
2021,06,09,07,57,12.80
2021,06,09,07,58,12.80
2021,06,09,07,59,12.80
2021,06,09,08,00,12.90
2021,06,09,08,01,12.90
2021,06,09,08,02,13.00
2021,06,09,08,03,13.00
2021,06,09,08,04,13.00
2021,06,09,08,05,12.90
2021,06,09,08,06,12.90
2021,06,09,08,07,12.90
2021,06,09,08,08,13.00
2021,06,09,08,09,13.00
2021,06,09,08,10,13.00
2021,06,09,08,11,13.00
2021,06,09,08,12,13.00
2021,06,09,08,13,13.10
2021,06,09,08,14,13.00
2021,06,09,08,15,13.00
2021,06,09,08,16,12.90
2021,06,09,08,17,13.00
2021,06,09,08,18,13.00
2021,06,09,08,19,13.00
2021,06,09,08,20,13.00
2021,06,09,08,21,13.00
2021,06,09,08,22,13.10
2021,06,09,08,23,13.00
2021,06,09,08,24,13.00
2021,06,09,08,25,13.00
2021,06,09,08,26,13.00
2021,06,09,08,27,13.00
2021,06,09,08,28,13.10
2021,06,09,08,29,13.10
2021,06,09,08,30,13.10
2021,06,09,08,31,13.20
2021,06,09,08,32,13.10
2021,06,09,08,33,13.10
2021,06,09,08,34,13.20
2021,06,09,08,35,13.20
2021,06,09,08,36,13.20
2021,06,09,08,37,13.20
2021,06,09,08,38,13.20
2021,06,09,08,39,13.30
2021,06,09,08,40,13.30
2021,06,09,08,41,13.40
2021,06,09,08,42,13.40
2021,06,09,08,43,13.40
2021,06,09,08,44,13.30
2021,06,09,08,45,13.30
2021,06,09,08,46,13.40
2021,06,09,08,47,13.40
2021,06,09,08,48,13.40
2021,06,09,08,49,13.40
2021,06,09,08,50,13.50
2021,06,09,08,51,13.40
2021,06,09,08,52,13.40
2021,06,09,08,53,13.50
2021,06,09,08,54,13.50
2021,06,09,08,55,13.50
2021,06,09,08,56,13.50
2021,06,09,08,57,13.50
2021,06,09,08,58,13.50
2021,06,09,08,59,13.50
2021,06,09,09,00,13.50
2021,06,09,09,01,13.40
2021,06,09,09,02,13.40
2021,06,09,09,03,13.30
2021,06,09,09,04,13.30
2021,06,09,09,05,13.30
2021,06,09,09,06,13.30
2021,06,09,09,07,13.40
2021,06,09,09,08,13.50
2021,06,09,09,09,13.50
2021,06,09,09,10,13.50
2021,06,09,09,11,13.50
2021,06,09,09,12,13.50
2021,06,09,09,13,13.50
2021,06,09,09,14,13.50
2021,06,09,09,15,13.50
2021,06,09,09,16,13.60
2021,06,09,09,17,13.70
2021,06,09,09,18,13.70
2021,06,09,09,19,13.80
2021,06,09,09,20,13.80
2021,06,09,09,21,13.80
2021,06,09,09,22,13.80
2021,06,09,09,23,13.80
2021,06,09,09,24,13.80
2021,06,09,09,25,13.90
2021,06,09,09,26,13.90
2021,06,09,09,27,14.00
2021,06,09,09,28,13.90
2021,06,09,09,29,13.90
2021,06,09,09,30,13.80
2021,06,09,09,31,13.90
2021,06,09,09,32,14.00
2021,06,09,09,33,14.00
2021,06,09,09,34,14.00
2021,06,09,09,35,14.00
2021,06,09,09,36,14.00
2021,06,09,09,37,14.00
2021,06,09,09,38,14.00
2021,06,09,09,39,14.00
2021,06,09,09,40,13.90
2021,06,09,09,41,13.90
2021,06,09,09,42,13.90
2021,06,09,09,43,14.00
2021,06,09,09,44,14.00
2021,06,09,09,45,14.10
2021,06,09,09,46,14.10
2021,06,09,09,47,14.10
2021,06,09,09,48,14.20
2021,06,09,09,49,14.30
2021,06,09,09,50,14.30
2021,06,09,09,51,14.20
2021,06,09,09,52,14.10
2021,06,09,09,53,14.20
2021,06,09,09,54,14.30
2021,06,09,09,55,14.30
2021,06,09,09,56,14.30
2021,06,09,09,57,14.20
2021,06,09,09,58,14.10
2021,06,09,09,59,14.10
2021,06,09,10,00,14.10
2021,06,09,10,01,14.10
2021,06,09,10,02,14.20
2021,06,09,10,03,14.20
2021,06,09,10,04,14.10
2021,06,09,10,05,14.10
2021,06,09,10,06,14.10
2021,06,09,10,07,14.10
2021,06,09,10,08,14.10
2021,06,09,10,09,14.20
2021,06,09,10,10,14.20
2021,06,09,10,11,14.20
2021,06,09,10,12,14.20
2021,06,09,10,13,14.30
2021,06,09,10,14,14.30
2021,06,09,10,15,14.30
2021,06,09,10,16,14.30
2021,06,09,10,17,14.40
2021,06,09,10,18,14.40
2021,06,09,10,19,14.30
2021,06,09,10,20,14.30
2021,06,09,10,21,14.30
2021,06,09,10,22,14.30
2021,06,09,10,23,14.20
2021,06,09,10,24,14.10
2021,06,09,10,25,14.10
2021,06,09,10,26,14.10
2021,06,09,10,27,14.10
2021,06,09,10,28,14.20
2021,06,09,10,29,14.20
2021,06,09,10,30,14.20
2021,06,09,10,31,14.20
2021,06,09,10,32,14.20
2021,06,09,10,33,14.20
2021,06,09,10,34,14.20
2021,06,09,10,35,14.40
2021,06,09,10,36,14.50
2021,06,09,10,37,14.60
2021,06,09,10,38,14.60
2021,06,09,10,39,14.60
2021,06,09,10,40,14.60
2021,06,09,10,41,14.70
2021,06,09,10,42,14.70
2021,06,09,10,43,14.70
2021,06,09,10,44,14.80
2021,06,09,10,45,14.80
2021,06,09,10,46,14.80
2021,06,09,10,47,14.90
2021,06,09,10,48,15.00
2021,06,09,10,49,15.00
2021,06,09,10,50,15.10
2021,06,09,10,51,15.00
2021,06,09,10,52,15.00
2021,06,09,10,53,15.00
2021,06,09,10,54,15.00
2021,06,09,10,55,15.00
2021,06,09,10,56,14.90
2021,06,09,10,57,14.80
2021,06,09,10,58,14.70
2021,06,09,10,59,14.80
2021,06,09,11,00,14.90
2021,06,09,11,01,15.00
2021,06,09,11,02,15.10
2021,06,09,11,03,15.20
2021,06,09,11,04,15.40
2021,06,09,11,05,15.50
2021,06,09,11,06,15.40
2021,06,09,11,07,15.30
2021,06,09,11,08,15.10
2021,06,09,11,09,15.00
2021,06,09,11,10,15.00
2021,06,09,11,11,14.90
2021,06,09,11,12,14.90
2021,06,09,11,13,14.90
2021,06,09,11,14,14.90
2021,06,09,11,15,14.90
2021,06,09,11,16,14.80
2021,06,09,11,17,14.80
2021,06,09,11,18,14.80
2021,06,09,11,19,14.70
2021,06,09,11,20,14.70
2021,06,09,11,21,14.70
2021,06,09,11,22,14.70
2021,06,09,11,23,14.70
2021,06,09,11,24,14.80
2021,06,09,11,25,15.00
2021,06,09,11,26,15.30
2021,06,09,11,27,15.30
2021,06,09,11,28,15.30
2021,06,09,11,29,15.30
2021,06,09,11,30,15.30
2021,06,09,11,31,15.30
2021,06,09,11,32,15.40
2021,06,09,11,33,15.50
2021,06,09,11,34,15.50
2021,06,09,11,35,15.50
2021,06,09,11,36,15.50
2021,06,09,11,37,15.40
2021,06,09,11,38,15.30
2021,06,09,11,39,15.30
2021,06,09,11,40,15.30
2021,06,09,11,41,15.40
2021,06,09,11,42,15.50
2021,06,09,11,43,15.60
2021,06,09,11,44,15.60
2021,06,09,11,45,15.50
2021,06,09,11,46,15.30
2021,06,09,11,47,15.10
2021,06,09,11,48,14.90
2021,06,09,11,49,14.80
2021,06,09,11,50,14.80
2021,06,09,11,51,14.90
2021,06,09,11,52,14.90
2021,06,09,11,53,14.90
2021,06,09,11,54,14.80
2021,06,09,11,55,14.80
2021,06,09,11,56,14.70
2021,06,09,11,57,14.70
2021,06,09,11,58,14.70
2021,06,09,11,59,14.70
2021,06,09,12,00,14.80
2021,06,09,12,01,14.90
2021,06,09,12,02,15.00
2021,06,09,12,03,15.00
2021,06,09,12,04,15.00
2021,06,09,12,05,15.00
2021,06,09,12,06,14.90
2021,06,09,12,07,14.90
2021,06,09,12,08,14.80
2021,06,09,12,09,14.80
2021,06,09,12,10,14.60
2021,06,09,12,11,14.60
2021,06,09,12,12,14.70
2021,06,09,12,13,14.80
2021,06,09,12,14,14.80
2021,06,09,12,15,14.90
2021,06,09,12,16,14.90
2021,06,09,12,17,15.00
2021,06,09,12,18,15.20
2021,06,09,12,19,15.30
2021,06,09,12,20,15.30
2021,06,09,12,21,15.20
2021,06,09,12,22,15.10
2021,06,09,12,23,15.00
2021,06,09,12,24,15.00
2021,06,09,12,25,15.00
2021,06,09,12,26,15.00
2021,06,09,12,27,15.10
2021,06,09,12,28,15.10
2021,06,09,12,29,15.10
2021,06,09,12,30,15.10
2021,06,09,12,31,15.10
2021,06,09,12,32,15.10
2021,06,09,12,33,15.10
2021,06,09,12,34,15.10
2021,06,09,12,35,15.10
2021,06,09,12,36,15.20
2021,06,09,12,37,15.30
2021,06,09,12,38,15.40
2021,06,09,12,39,15.50
2021,06,09,12,40,15.60
2021,06,09,12,41,15.60
2021,06,09,12,42,15.50
2021,06,09,12,43,15.40
2021,06,09,12,44,15.30
2021,06,09,12,45,15.30
2021,06,09,12,46,15.30
2021,06,09,12,47,15.30
2021,06,09,12,48,15.20
2021,06,09,12,49,15.30
2021,06,09,12,50,15.40
2021,06,09,12,51,15.40
2021,06,09,12,52,15.30
2021,06,09,12,53,15.30
2021,06,09,12,54,15.40
2021,06,09,12,55,15.30
2021,06,09,12,56,15.20
2021,06,09,12,57,15.10
2021,06,09,12,58,15.00
2021,06,09,12,59,15.00
2021,06,09,13,00,15.00
2021,06,09,13,01,15.00
2021,06,09,13,02,15.10
2021,06,09,13,03,15.30
2021,06,09,13,04,15.30
2021,06,09,13,05,15.20
2021,06,09,13,06,15.30
2021,06,09,13,07,15.50
2021,06,09,13,08,15.60
2021,06,09,13,09,15.60
2021,06,09,13,10,15.50
2021,06,09,13,11,15.40
2021,06,09,13,12,15.30
2021,06,09,13,13,15.20
2021,06,09,13,14,15.20
2021,06,09,13,15,15.30
2021,06,09,13,16,15.40
2021,06,09,13,17,15.50
2021,06,09,13,18,15.60
2021,06,09,13,19,15.70
2021,06,09,13,20,15.80
2021,06,09,13,21,15.90
2021,06,09,13,22,15.90
2021,06,09,13,23,15.80
2021,06,09,13,24,15.60
2021,06,09,13,25,15.40
2021,06,09,13,26,15.40
2021,06,09,13,27,15.40
2021,06,09,13,28,15.50
2021,06,09,13,29,15.60
2021,06,09,13,30,15.60
2021,06,09,13,31,15.60
2021,06,09,13,32,15.60
2021,06,09,13,33,15.50
2021,06,09,13,34,15.40
2021,06,09,13,35,15.50
2021,06,09,13,36,15.50
2021,06,09,13,37,15.50
2021,06,09,13,38,15.50
2021,06,09,13,39,15.40
2021,06,09,13,40,15.50
2021,06,09,13,41,15.60
2021,06,09,13,42,15.60
2021,06,09,13,43,15.60
2021,06,09,13,44,15.60
2021,06,09,13,45,15.50
2021,06,09,13,46,15.50
2021,06,09,13,47,15.40
2021,06,09,13,48,15.40
2021,06,09,13,49,15.50
2021,06,09,13,50,15.50
2021,06,09,13,51,15.40
2021,06,09,13,52,15.50
2021,06,09,13,53,15.60
2021,06,09,13,54,15.50
2021,06,09,13,55,15.50
2021,06,09,13,56,15.50
2021,06,09,13,57,15.50
2021,06,09,13,58,15.60
2021,06,09,13,59,15.60
2021,06,09,14,00,15.40
2021,06,09,14,01,15.20
2021,06,09,14,02,15.10
2021,06,09,14,03,15.10
2021,06,09,14,04,15.10
2021,06,09,14,05,15.00
2021,06,09,14,06,14.80
2021,06,09,14,07,14.80
2021,06,09,14,08,14.80
2021,06,09,14,09,14.90
2021,06,09,14,10,15.00
2021,06,09,14,11,15.10
2021,06,09,14,12,15.10
2021,06,09,14,13,15.10
2021,06,09,14,14,15.00
2021,06,09,14,15,14.90
2021,06,09,14,16,14.80
2021,06,09,14,17,14.80
2021,06,09,14,18,14.90
2021,06,09,14,19,15.00
2021,06,09,14,20,15.10
2021,06,09,14,21,15.10
2021,06,09,14,22,15.10
2021,06,09,14,23,15.00
2021,06,09,14,24,15.00
2021,06,09,14,25,15.10
2021,06,09,14,26,15.10
2021,06,09,14,27,15.10
2021,06,09,14,28,15.10
2021,06,09,14,29,14.90
2021,06,09,14,30,14.80
2021,06,09,14,31,14.90
2021,06,09,14,32,14.90
2021,06,09,14,33,14.90
2021,06,09,14,34,15.10
2021,06,09,14,35,15.20
2021,06,09,14,36,15.30
2021,06,09,14,37,15.20
2021,06,09,14,38,15.20
2021,06,09,14,39,15.10
2021,06,09,14,40,15.00
2021,06,09,14,41,15.00
2021,06,09,14,42,15.00
2021,06,09,14,43,15.00
2021,06,09,14,44,15.00
2021,06,09,14,45,15.10
2021,06,09,14,46,15.10
2021,06,09,14,47,15.10
2021,06,09,14,48,15.20
2021,06,09,14,49,15.20
2021,06,09,14,50,15.10
2021,06,09,14,51,15.10
2021,06,09,14,52,15.10
2021,06,09,14,53,15.20
2021,06,09,14,54,15.30
2021,06,09,14,55,15.50
2021,06,09,14,56,15.60
2021,06,09,14,57,15.60
2021,06,09,14,58,15.60
2021,06,09,14,59,15.50
2021,06,09,15,00,15.50
2021,06,09,15,01,15.40
2021,06,09,15,02,15.30
2021,06,09,15,03,15.30
2021,06,09,15,04,15.30
2021,06,09,15,05,15.40
2021,06,09,15,06,15.60
2021,06,09,15,07,15.80
2021,06,09,15,08,15.90
2021,06,09,15,09,15.90
2021,06,09,15,10,15.90
2021,06,09,15,11,16.00
2021,06,09,15,12,15.90
2021,06,09,15,13,15.80
2021,06,09,15,14,15.80
2021,06,09,15,15,15.70
2021,06,09,15,16,15.70
2021,06,09,15,17,15.80
2021,06,09,15,18,15.80
2021,06,09,15,19,16.00
2021,06,09,15,20,16.10
2021,06,09,15,21,16.00
2021,06,09,15,22,16.00
2021,06,09,15,23,16.00
2021,06,09,15,24,16.20
2021,06,09,15,25,16.30
2021,06,09,15,26,16.30
2021,06,09,15,27,16.20
2021,06,09,15,28,16.10
2021,06,09,15,29,16.10
2021,06,09,15,30,16.10
2021,06,09,15,31,16.20
2021,06,09,15,32,16.20
2021,06,09,15,33,16.20
2021,06,09,15,34,16.30
2021,06,09,15,35,16.30
2021,06,09,15,36,16.40
2021,06,09,15,37,16.50
2021,06,09,15,38,16.50
2021,06,09,15,39,16.40
2021,06,09,15,40,16.40
2021,06,09,15,41,16.40
2021,06,09,15,42,16.30
2021,06,09,15,43,16.20
2021,06,09,15,44,16.10
2021,06,09,15,45,16.00
2021,06,09,15,46,15.80
2021,06,09,15,47,15.90
2021,06,09,15,48,15.90
2021,06,09,15,49,15.90
2021,06,09,15,50,15.80
2021,06,09,15,51,15.80
2021,06,09,15,52,15.80
2021,06,09,15,53,15.90
2021,06,09,15,54,16.00
2021,06,09,15,55,16.00
2021,06,09,15,56,16.10
2021,06,09,15,57,16.10
2021,06,09,15,58,16.10
2021,06,09,15,59,16.20
2021,06,09,16,00,16.30
2021,06,09,16,01,16.10
2021,06,09,16,02,16.00
2021,06,09,16,03,16.00
2021,06,09,16,04,16.10
2021,06,09,16,05,16.20
2021,06,09,16,06,16.30
2021,06,09,16,07,16.30
2021,06,09,16,08,16.30
2021,06,09,16,09,16.20
2021,06,09,16,10,16.20
2021,06,09,16,11,16.00
2021,06,09,16,12,16.00
2021,06,09,16,13,16.00
2021,06,09,16,14,16.10
2021,06,09,16,15,16.10
2021,06,09,16,16,16.10
2021,06,09,16,17,16.20
2021,06,09,16,18,16.20
2021,06,09,16,19,16.20
2021,06,09,16,20,16.30
2021,06,09,16,21,16.40
2021,06,09,16,22,16.50
2021,06,09,16,23,16.60
2021,06,09,16,24,16.70
2021,06,09,16,25,16.70
2021,06,09,16,26,16.70
2021,06,09,16,27,16.70
2021,06,09,16,28,16.70
2021,06,09,16,29,16.70
2021,06,09,16,30,16.70
2021,06,09,16,31,16.70
2021,06,09,16,32,16.80
2021,06,09,16,33,16.80
2021,06,09,16,34,16.80
2021,06,09,16,35,16.80
2021,06,09,16,36,16.80
2021,06,09,16,37,16.70
2021,06,09,16,38,16.50
2021,06,09,16,39,16.50
2021,06,09,16,40,16.70
2021,06,09,16,41,16.80
2021,06,09,16,42,16.90
2021,06,09,16,43,16.80
2021,06,09,16,44,16.70
2021,06,09,16,45,16.50
2021,06,09,16,46,16.50
2021,06,09,16,47,16.70
2021,06,09,16,48,16.80
2021,06,09,16,49,16.80
2021,06,09,16,50,16.90
2021,06,09,16,51,16.90
2021,06,09,16,52,16.80
2021,06,09,16,53,16.80
2021,06,09,16,54,16.80
2021,06,09,16,55,16.60
2021,06,09,16,56,16.40
2021,06,09,16,57,16.40
2021,06,09,16,58,16.50
2021,06,09,16,59,16.50
2021,06,09,17,00,16.40
2021,06,09,17,01,16.40
2021,06,09,17,02,16.30
2021,06,09,17,03,16.20
2021,06,09,17,04,16.30
2021,06,09,17,05,16.30
2021,06,09,17,06,16.40
2021,06,09,17,07,16.40
2021,06,09,17,08,16.50
2021,06,09,17,09,16.50
2021,06,09,17,10,16.40
2021,06,09,17,11,16.40
2021,06,09,17,12,16.40
2021,06,09,17,13,16.30
2021,06,09,17,14,16.40
2021,06,09,17,15,16.40
2021,06,09,17,16,16.30
2021,06,09,17,17,16.20
2021,06,09,17,18,16.20
2021,06,09,17,19,16.20
2021,06,09,17,20,16.30
2021,06,09,17,21,16.40
2021,06,09,17,22,16.40
2021,06,09,17,23,16.40
2021,06,09,17,24,16.30